GW7664 Weather Reports


time (UTC)temp
F
wind
direction
speed
knots
gust
knots
rain 1hr
in
rain 24hr
in
rain mn
in
humidity
%
barometer
mb
20260906212618 87 181 2.6 4.3 0.00 0.00 0.00 28 1022.2
20260906212114 86 103 4.3 6.1 0.00 0.00 0.00 28 1022.2
20260906211613 87 177 3.5 7.0 0.00 0.00 0.00 28 1022.1
20260906211108 87 144 4.3 6.1 0.00 0.00 0.00 30 1022.1
20260906210604 87 160 6.1 12.2 0.00 0.00 0.00 28 1022.2
20260906210059 87 126 5.2 7.8 0.00 0.00 0.00 29 1022.2
20260906205554 88 113 5.2 7.8 0.00 0.00 0.00 30 1022.5
20260906205050 89 168 5.2 8.7 0.00 0.00 0.00 27 1022.2
20260906204549 88 143 7.8 8.7 0.00 0.00 0.00 28 1022.7
20260906204044 87 167 3.5 7.0 0.00 0.00 0.00 30 1022.6
20260906203544 87 133 9.6 11.3 0.00 0.00 0.00 31 1022.8
20260906203039 86 192 3.5 7.0 0.00 0.00 0.00 33 1022.8
20260906202535 85 67 6.1 7.8 0.00 0.00 0.00 34 1022.9
20260906202030 84 55 4.3 6.1 0.00 0.00 0.00 36 1022.8
20260906201530 84 340 3.5 6.1 0.00 0.00 0.00 35 1023.1
20260906201030 85 52 6.1 8.7 0.00 0.00 0.00 35 1023.2
20260906200526 85 338 2.6 4.3 0.00 0.00 0.00 36 1023.2
20260906200022 84 133 4.3 6.1 0.00 0.00 0.00 35 1023.1
20260906195517 84 334 5.2 6.1 0.00 0.00 0.00 35 1023.2
20260906195013 85 37 3.5 6.1 0.00 0.00 0.00 36 1023.4
20260906194509 84 83 4.3 6.1 0.00 0.00 0.00 35 1023.3
20260906194004 85 12 5.2 6.1 0.00 0.00 0.00 37 1023.8
20260906193504 83 78 4.3 7.8 0.00 0.00 0.00 35 1023.5
20260906192959 84 86 3.5 7.8 0.00 0.00 0.00 35 1023.7
20260906192454 84 75 7.0 9.6 0.00 0.00 0.00 34 1023.9
20260906191953 83 316 2.6 5.2 0.00 0.00 0.00 37 1023.9
20260906191448 83 119 7.8 11.3 0.00 0.00 0.00 37 1023.9
20260906190948 83 80 4.3 6.1 0.00 0.00 0.00 35 1024.1
20260906190446 82 354 2.6 5.2 0.00 0.00 0.00 38 1024.3
20260906185942 83 12 4.3 7.0 0.00 0.00 0.00 36 1024.3
20260906185441 83 110 4.3 7.0 0.00 0.00 0.00 36 1024.3
20260906184940 82 75 7.0 9.6 0.00 0.00 0.00 37 1024.4
20260906184436 83 68 5.2 11.3 0.00 0.00 0.00 36 1024.6
20260906183931 82 116 6.1 7.8 0.00 0.00 0.00 35 1024.7
20260906183427 82 104 3.5 5.2 0.00 0.00 0.00 37 1024.6
20260906182922 82 111 4.3 7.8 0.00 0.00 0.00 37 1024.9
20260906182417 82 109 7.8 9.6 0.00 0.00 0.00 37 1024.9
20260906181914 82 88 7.0 12.2 0.00 0.00 0.00 38 1024.9
20260906181409 82 46 2.6 6.1 0.00 0.00 0.00 35 1025.1
20260906180904 81 347 2.6 6.1 0.00 0.00 0.00 37 1024.9
20260906180359 82 281 1.7 7.8 0.00 0.00 0.00 34 1025.3
20260906175856 81 60 4.3 8.7 0.00 0.00 0.00 38 1025.3
20260906175351 81 45 6.1 7.8 0.00 0.00 0.00 37 1025.2
20260906174851 81 72 7.8 8.7 0.00 0.00 0.00 38 1025.3
20260906174350 80 34 7.8 9.6 0.00 0.00 0.00 36 1025.5
20260906173845 80 63 6.1 7.8 0.00 0.00 0.00 36 1025.5
20260906173341 80 332 2.6 7.8 0.00 0.00 0.00 37 1025.6
20260906172840 80 82 3.5 7.0 0.00 0.00 0.00 39 1025.6
20260906172336 80 46 7.8 9.6 0.00 0.00 0.00 39 1025.7
20260906171831 79 354 4.3 7.0 0.00 0.00 0.00 39 1025.7
20260906171326 80 64 4.3 7.8 0.00 0.00 0.00 38 1025.7
20260906170822 80 37 6.1 8.7 0.00 0.00 0.00 38 1025.8
20260906170318 78 300 2.6 7.0 0.00 0.00 0.00 40 1025.6
20260906165814 79 44 6.1 7.8 0.00 0.00 0.00 38 1025.8
20260906165313 79 26 5.2 7.0 0.00 0.00 0.00 40 1025.9
20260906164814 78 2 4.3 5.2 0.00 0.00 0.00 38 1025.7
20260906164308 77 305 2.6 7.0 0.00 0.00 0.00 39 1025.8
20260906163804 78 300 1.7 4.3 0.00 0.00 0.00 41 1025.8
20260906163300 78 289 2.6 4.3 0.00 0.00 0.00 39 1025.9
20260906162757 77 338 4.3 7.8 0.00 0.00 0.00 41 1025.8
20260906162256 78 357 6.1 7.0 0.00 0.00 0.00 39 1025.9
20260906161756 77 22 5.2 8.7 0.00 0.00 0.00 40 1025.8
20260906161255 77 53 6.1 7.8 0.00 0.00 0.00 41 1025.8
20260906160754 77 70 2.6 6.1 0.00 0.00 0.00 42 1025.9
20260906160249 76 20 3.5 6.1 0.00 0.00 0.00 45 1025.8
20260906155747 75 62 5.2 7.0 0.00 0.00 0.00 44 1025.9
20260906155242 76 55 4.3 6.1 0.00 0.00 0.00 45 1025.7
20260906154737 76 51 4.3 6.1 0.00 0.00 0.00 45 1025.8
20260906154232 76 81 4.3 6.1 0.00 0.00 0.00 44 1025.6
20260906153730 76 78 5.2 7.0 0.00 0.00 0.00 42 1025.7
20260906153220 75 66 4.3 6.1 0.00 0.00 0.00 43 1025.6
20260906152715 75 52 5.2 7.8 0.00 0.00 0.00 43 1025.7
20260906152215 74 44 6.1 7.0 0.00 0.00 0.00 44 1025.7
20260906151709 74 35 5.2 7.8 0.00 0.00 0.00 45 1025.6
20260906151205 75 37 6.1 7.8 0.00 0.00 0.00 44 1025.5
20260906150700 74 37 3.5 6.1 0.00 0.00 0.00 45 1025.7
20260906150155 75 14 4.3 7.8 0.00 0.00 0.00 43 1025.5
20260906145654 73 274 0.0 1.7 0.00 0.00 0.00 45 1025.7
20260906145154 74 81 4.3 5.2 0.00 0.00 0.00 43 1025.7
20260906144654 73 79 3.5 4.3 0.00 0.00 0.00 46 1025.8
20260906144149 73 331 2.6 2.6 0.00 0.00 0.00 47 1025.7
20260906143649 72 336 1.7 2.6 0.00 0.00 0.00 46 1025.7
20260906143146 72 283 0.9 2.6 0.00 0.00 0.00 47 1025.8
20260906142645 72 51 2.6 4.3 0.00 0.00 0.00 48 1026.1
20260906142141 72 199 1.7 2.6 0.00 0.00 0.00 47 1025.8
20260906141639 71 215 2.6 5.2 0.00 0.00 0.00 50 1025.7
20260906141135 70 233 2.6 2.6 0.00 0.00 0.00 51 1025.5
20260906140634 70 222 1.7 4.3 0.00 0.00 0.00 52 1025.6
20260906140129 69 204 1.7 2.6 0.00 0.00 0.00 55 1025.6
20260906135626 68 239 1.7 1.7 0.00 0.00 0.00 54 1025.2
20260906135122 66 255 0.9 1.7 0.00 0.00 0.00 54 1025.1
20260906134617 66 261 0.9 0.9 0.00 0.00 0.00 57 1025.0
20260906134112 64 249 1.7 2.6 0.00 0.00 0.00 57 1025.1
20260906133608 64 241 1.7 1.7 0.00 0.00 0.00 58 1025.0
20260906133103 61 272 0.0 0.9 0.00 0.00 0.00 60 1025.0
20260906132558 61 261 0.9 1.7 0.00 0.00 0.00 61 1025.0
20260906132054 60 261 0.9 1.7 0.00 0.00 0.00 61 1024.9
20260906131549 59 262 0.9 1.7 0.00 0.00 0.00 64 1025.1
20260906131044 59 252 0.9 1.7 0.00 0.00 0.00 63 1025.0
20260906130544 59 236 1.7 2.6 0.00 0.00 0.00 63 1024.6
20260906130039 58 261 0.9 1.7 0.00 0.00 0.00 64 1024.6
20260906125537 58 247 1.7 2.6 0.00 0.00 0.00 62 1024.7
20260906125036 59 226 2.6 2.6 0.00 0.00 0.00 62 1024.7
20260906124532 59 257 0.9 2.6 0.00 0.00 0.00 62 1024.7
20260906124027 57 247 1.7 1.7 0.00 0.00 0.00 65 1024.6
20260906123526 58 242 2.6 4.3 0.00 0.00 0.00 65 1024.6
20260906123021 58 255 0.9 2.6 0.00 0.00 0.00 63 1024.6
20260906122521 58 261 0.9 0.9 0.00 0.00 0.00 63 1024.4
20260906122017 58 245 1.7 1.7 0.00 0.00 0.00 62 1024.4
20260906121513 58 230 2.6 2.6 0.00 0.00 0.00 63 1024.5
20260906121010 59 254 0.9 1.7 0.00 0.00 0.00 61 1024.3
20260906120509 59 258 0.9 1.7 0.00 0.00 0.00 61 1024.1
20260906120008 60 249 1.7 1.7 0.00 0.00 0.00 59 1024.4
20260906115502 60 218 2.6 2.6 0.00 0.00 0.00 60 1024.1
20260906115002 60 262 0.9 0.9 0.00 0.00 0.00 59 1024.4
20260906114456 60 247 1.7 2.6 0.00 0.00 0.00 58 1024.1
20260906113953 61 248 1.7 2.6 0.00 0.00 0.00 57 1024.3
20260906113451 61 234 1.7 1.7 0.00 0.00 0.00 58 1024.0
20260906112946 62 262 0.9 1.7 0.00 0.00 0.00 57 1024.0
20260906112442 62 259 2.6 7.0 0.00 0.00 0.00 56 1024.0
20260906111938 62 262 2.6 5.2 0.00 0.00 0.00 56 1024.0
20260906111436 62 262 0.0 0.9 0.00 0.00 0.00 60 1024.1
20260906110931 62 255 0.9 2.6 0.00 0.00 0.00 60 1023.9
20260906110427 62 263 3.5 6.1 0.00 0.00 0.00 61 1024.1
20260906105926 62 298 2.6 5.2 0.00 0.00 0.00 62 1024.1
20260906105422 63 257 0.9 1.7 0.00 0.00 0.00 63 1024.0
20260906104918 64 264 1.7 5.2 0.00 0.00 0.00 62 1024.1
20260906104416 64 265 2.6 2.6 0.00 0.00 0.00 64 1024.3
20260906103915 65 242 3.5 5.2 0.00 0.00 0.00 60 1024.3
20260906103414 66 261 0.0 1.7 0.00 0.00 0.00 63 1024.4
20260906102910 66 33 3.5 4.3 0.00 0.00 0.00 62 1024.1
20260906102409 66 216 2.6 2.6 0.00 0.00 0.00 61 1024.1
20260906101904 67 292 2.6 2.6 0.00 0.00 0.00 61 1024.3
20260906101359 68 255 2.6 6.1 0.00 0.00 0.00 60 1024.0
20260906100854 69 57 5.2 7.0 0.00 0.00 0.00 57 1024.3
20260906100353 67 139 4.3 5.2 0.00 0.00 0.00 61 1024.0
20260906095848 68 61 2.6 4.3 0.00 0.00 0.00 61 1024.3
20260906095344 68 198 6.1 7.0 0.00 0.00 0.00 59 1024.1
20260906094843 67 86 7.8 11.3 0.00 0.00 0.00 60 1024.0
20260906094339 66 124 4.3 5.2 0.00 0.00 0.00 62 1024.0
20260906093835 66 151 4.3 5.2 0.00 0.00 0.00 61 1023.9
20260906093331 67 234 2.6 2.6 0.00 0.00 0.00 60 1024.1
20260906092826 66 251 0.9 1.7 0.00 0.00 0.00 61 1024.1
20260906092325 67 312 1.7 6.1 0.00 0.00 0.00 61 1024.0
20260906091821 67 328 4.3 7.8 0.00 0.00 0.00 59 1024.0
20260906091317 67 301 0.9 8.7 0.00 0.00 0.00 58 1024.0
20260906090813 68 10 3.5 13.0 0.00 0.00 0.00 58 1023.8
20260906090312 67 340 7.0 9.6 0.00 0.00 0.00 58 1023.8
20260906085807 68 357 7.8 9.6 0.00 0.00 0.00 57 1023.7
20260906085307 67 316 4.3 7.8 0.00 0.00 0.00 56 1023.8
20260906084801 65 79 4.3 7.0 0.00 0.00 0.00 54 1023.5
20260906084300 64 96 3.5 7.8 0.00 0.00 0.00 53 1023.5
20260906083755 61 333 1.7 2.6 0.00 0.00 0.00 57 1023.5
20260906083250 60 263 0.0 2.6 0.00 0.00 0.00 63 1023.4
20260906082745 62 263 0.9 1.7 0.00 0.00 0.00 59 1023.5
20260906082240 63 255 0.9 0.9 0.00 0.00 0.00 56 1023.5
20260906081736 62 271 0.0 0.0 0.00 0.00 0.00 57 1023.4
20260906081231 63 271 0.0 0.9 0.00 0.00 0.00 57 1023.3
20260906080728 66 242 0.9 2.6 0.00 0.00 0.00 50 1023.3
20260906080224 65 197 1.7 1.7 0.00 0.00 0.00 53 1023.4
20260906075724 65 257 0.9 1.7 0.00 0.00 0.00 53 1023.2
20260906075224 64 235 1.7 1.7 0.00 0.00 0.00 55 1023.2
20260906074719 65 248 1.7 1.7 0.00 0.00 0.00 53 1023.2
20260906074218 65 245 1.7 2.6 0.00 0.00 0.00 51 1023.1
20260906073713 64 230 1.7 2.6 0.00 0.00 0.00 52 1023.3
20260906073208 64 233 2.6 2.6 0.00 0.00 0.00 55 1023.3
20260906072704 66 255 0.9 1.7 0.00 0.00 0.00 53 1023.2
20260906072159 64 258 0.9 2.6 0.00 0.00 0.00 53 1022.9
20260906071655 63 262 0.9 0.9 0.00 0.00 0.00 58 1023.3
20260906071154 64 255 0.9 1.7 0.00 0.00 0.00 57 1023.1
20260906070652 63 224 2.6 4.3 0.00 0.00 0.00 56 1023.2
20260906070147 64 257 1.7 1.7 0.00 0.00 0.00 55 1023.1
20260906065646 64 294 0.9 0.9 0.00 0.00 0.00 54 1023.1
20260906065142 64 259 0.9 0.9 0.00 0.00 0.00 56 1023.1
20260906064637 65 256 0.9 1.7 0.00 0.00 0.00 55 1023.2
20260906064133 65 259 0.9 0.9 0.00 0.00 0.00 55 1023.2
20260906063628 65 230 1.7 2.6 0.00 0.00 0.00 54 1023.2
20260906063124 65 218 3.5 5.2 0.00 0.00 0.00 54 1023.2
20260906062619 65 240 2.6 4.3 0.00 0.00 0.00 54 1023.1
20260906062118 65 213 2.6 4.3 0.00 0.00 0.00 55 1022.9
20260906061614 65 199 4.3 5.2 0.00 0.00 0.00 55 1023.3
20260906061114 66 229 4.3 7.0 0.00 0.00 0.00 54 1023.3
20260906060611 64 236 2.6 4.3 0.00 0.00 0.00 59 1022.9
20260906060108 64 247 1.7 1.7 0.00 0.00 0.00 64 1022.9
20260906055603 64 239 2.6 2.6 0.00 0.00 0.00 63 1023.3
20260906055058 66 245 1.7 4.3 0.00 0.00 0.00 61 1023.7
20260906054558 66 238 2.6 5.2 0.00 0.00 0.00 61 1023.5
20260906054053 67 228 4.3 5.2 0.00 0.00 0.00 59 1023.7
20260906053550 68 241 4.3 6.1 0.00 0.00 0.00 56 1023.4
20260906053045 66 241 4.3 6.1 0.00 0.00 0.00 60 1023.4
20260906052540 66 228 4.3 6.1 0.00 0.00 0.00 60 1023.7
20260906052038 67 211 2.6 4.3 0.00 0.00 0.00 59 1023.7
20260906051533 68 249 4.3 5.2 0.00 0.00 0.00 57 1023.7
20260906051028 69 262 2.6 4.3 0.00 0.00 0.00 56 1023.9
20260906050523 69 262 2.6 5.2 0.00 0.00 0.00 55 1024.0
20260906050018 68 267 2.6 5.2 0.00 0.00 0.00 55 1024.0
20260906045516 68 254 3.5 4.3 0.00 0.00 0.00 57 1024.1
20260906045012 69 247 2.6 4.3 0.00 0.00 0.00 55 1024.3
20260906044508 70 253 2.6 5.2 0.00 0.00 0.00 54 1024.3
20260906044003 69 201 1.7 5.2 0.00 0.00 0.00 54 1024.3
20260906043459 69 246 2.6 6.1 0.00 0.00 0.00 52 1024.5
20260906042954 69 210 2.6 5.2 0.00 0.00 0.00 52 1024.1
20260906042453 69 212 3.5 5.2 0.00 0.00 0.00 50 1024.5
20260906041953 68 245 4.3 5.2 0.00 0.00 0.00 50 1024.5
20260906041450 69 222 3.5 4.3 0.00 0.00 0.00 49 1024.4
20260906040949 68 232 3.5 5.2 0.00 0.00 0.00 51 1024.4
20260906040444 65 242 2.6 4.3 0.00 0.00 0.00 55 1024.5
20260906035939 66 241 1.7 1.7 0.00 0.00 0.00 53 1024.3
20260906035435 67 250 0.9 1.7 0.00 0.00 0.00 51 1024.4
20260906034931 68 247 2.6 4.3 0.00 0.00 0.00 52 1024.5
20260906034431 69 249 1.7 2.6 0.00 0.00 0.00 51 1024.1
20260906033926 70 262 1.7 1.7 0.00 0.00 0.00 46 1024.1
20260906033426 69 271 2.6 2.6 0.00 0.00 0.00 48 1024.3
20260906032922 70 268 0.0 2.6 0.00 0.00 0.00 45 1024.1
20260906032419 71 226 2.6 2.6 0.00 0.00 0.00 46 1024.1
20260906031919 68 243 3.5 5.2 0.00 0.00 0.00 47 1024.0
20260906031414 71 253 1.7 1.7 0.00 0.00 0.00 45 1023.8
20260906030909 71 264 0.9 2.6 0.00 0.00 0.00 45 1023.5
20260906030404 71 248 2.6 4.3 0.00 0.00 0.00 44 1023.5
20260906025858 71 259 1.7 4.3 0.00 0.00 0.00 45 1023.4
20260906025353 69 242 0.9 2.6 0.00 0.00 0.00 48 1023.2
20260906024851 69 233 2.6 2.6 0.00 0.00 0.00 48 1023.3
20260906024351 69 238 2.6 2.6 0.00 0.00 0.00 49 1023.4
20260906023846 69 245 1.7 1.7 0.00 0.00 0.00 49 1023.3
20260906023342 70 254 1.7 2.6 0.00 0.00 0.00 48 1023.3
20260906022837 69 244 1.7 2.6 0.00 0.00 0.00 49 1023.2
20260906022337 70 255 1.7 2.6 0.00 0.00 0.00 50 1023.2
20260906021833 70 223 2.6 4.3 0.00 0.00 0.00 49 1023.1
20260906021333 70 220 2.6 2.6 0.00 0.00 0.00 49 1023.1
20260906020828 70 226 1.7 1.7 0.00 0.00 0.00 49 1022.8
20260906020327 71 258 0.9 0.9 0.00 0.00 0.00 48 1022.8
20260906015822 71 255 0.9 1.7 0.00 0.00 0.00 48 1022.7
20260906015321 71 242 0.9 1.7 0.00 0.00 0.00 47 1022.7
20260906014820 72 263 0.9 0.9 0.00 0.00 0.00 47 1022.7
20260906014316 73 263 0.9 1.7 0.00 0.00 0.00 46 1022.7
20260906013812 72 260 0.9 1.7 0.00 0.00 0.00 47 1022.7
20260906013307 73 231 2.6 2.6 0.00 0.00 0.00 47 1022.6
20260906012802 73 221 1.7 1.7 0.00 0.00 0.00 48 1022.8
20260906012257 74 257 0.0 1.7 0.00 0.00 0.00 48 1022.7
20260906011752 75 256 0.9 1.7 0.00 0.00 0.00 47 1022.7
20260906011252 76 251 0.9 1.7 0.00 0.00 0.00 43 1022.5
20260906010748 76 247 2.6 2.6 0.00 0.00 0.00 44 1022.5
20260906010244 77 255 0.0 1.7 0.00 0.00 0.00 44 1022.6
20260906005739 80 251 1.7 1.7 0.00 0.00 0.00 40 1022.8
20260906005238 80 257 0.9 0.9 0.00 0.00 0.00 38 1022.8
20260906004737 82 187 2.6 4.3 0.00 0.00 0.00 35 1022.7
20260906004233 83 257 1.7 2.6 0.00 0.00 0.00 35 1022.7
20260906003733 84 235 2.6 2.6 0.00 0.00 0.00 32 1022.6
20260906003229 84 244 2.6 2.6 0.00 0.00 0.00 32 1022.8
20260906002729 84 244 2.6 2.6 0.00 0.00 0.00 32 1022.7
20260906002229 85 250 2.6 2.6 0.00 0.00 0.00 31 1022.5
20260906001724 85 228 2.6 4.3 0.00 0.00 0.00 31 1022.7
20260906001219 86 255 1.7 2.6 0.00 0.00 0.00 32 1022.8
20260906000714 86 231 1.7 2.6 0.00 0.00 0.00 30 1022.8
20260906000212 86 253 1.7 2.6 0.00 0.00 0.00 31 1022.8
20260905235709 84 261 0.0 2.6 0.00 0.00 0.00 31 1022.7
20260905235204 84 170 5.2 6.1 0.00 0.00 0.00 32 1022.6
20260905234659 85 212 2.6 5.2 0.00 0.00 0.00 32 1022.6
20260905234154 84 80 4.3 6.1 0.00 0.00 0.00 31 1022.8
20260905233649 85 78 6.1 7.0 0.00 0.00 0.00 32 1022.8
20260905233149 84 82 5.2 7.8 0.00 0.00 0.00 32 1022.7
20260905232644 84 123 5.2 8.7 0.00 0.00 0.00 32 1022.6
20260905232140 84 68 4.3 6.1 0.00 0.00 0.00 31 1022.7
20260905231635 84 53 7.0 8.7 0.00 0.00 0.00 33 1022.8
20260905231131 84 75 5.2 7.8 0.00 0.00 0.00 34 1022.7
20260905230627 84 69 8.7 9.6 0.00 0.00 0.00 32 1023.1
20260905230125 84 73 3.5 6.1 0.00 0.00 0.00 33 1022.7
20260905225624 84 116 7.8 12.2 0.00 0.00 0.00 33 1023.2
20260905225120 84 94 7.8 8.7 0.00 0.00 0.00 34 1023.1
20260905224619 84 104 7.0 11.3 0.00 0.00 0.00 32 1022.9
20260905224119 84 101 8.7 9.6 0.00 0.00 0.00 33 1022.9
20260905223616 83 78 10.4 17.4 0.00 0.00 0.00 33 1023.1
20260905223112 81 77 12.2 15.6 0.00 0.00 0.00 36 1023.1
20260905222612 81 79 10.4 15.6 0.00 0.00 0.00 36 1023.1
20260905222108 82 94 12.2 14.8 0.00 0.00 0.00 35 1023.2
20260905221603 83 100 7.0 9.6 0.00 0.00 0.00 34 1023.1
20260905221100 82 120 9.6 14.8 0.00 0.00 0.00 36 1023.2
20260905220555 82 179 6.1 13.0 0.00 0.00 0.00 35 1023.1
20260905220051 82 234 7.8 18.2 0.00 0.00 0.00 35 1022.9
20260905215550 82 258 7.0 8.7 0.00 0.00 0.00 41 1022.9
20260905215046 85 258 1.7 1.7 0.00 0.00 0.00 36 1022.8
20260905214543 84 280 0.0 1.7 0.00 0.00 0.00 28 1022.8
20260905214043 84 302 0.9 1.7 0.00 0.00 0.00 31 1022.8
20260905213538 85 279 0.9 1.7 0.00 0.00 0.00 31 1023.1